IU2GED-13 Weather Reports


time (UTC)temp
C
wind
direction
speed
KPH
gust
KPH
rain 1hr
cm
rain 24hr
cm
rain mn
cm
humidity
%
barometer
mb
20260507192730 11 67 0.0 6.4 0.00 1.60 0.20 87 1011.4
20260507192235 11 67 0.0 8.0 0.00 1.60 0.20 87 1011.4
20260507191740 11 71 3.2 8.0 0.00 1.60 0.20 87 1011.4
20260507191223 12 360 4.8 6.4 0.00 1.60 0.20 87 1011.2
20260507190749 12 16 3.2 6.4 0.00 1.60 0.20 86 1011.2
20260507190252 12 38 1.6 4.8 0.00 1.60 0.20 87 1011.1
20260507185756 12 355 3.2 4.8 0.00 5.11 0.20 86 1011.2
20260507185240 12 78 0.0 3.2 0.00 5.11 0.20 86 1011.1
20260507184728 12 122 0.0 1.6 0.00 5.11 0.20 86 1011.0
20260507184233 12 146 0.0 4.8 0.00 5.11 0.20 86 1011.0
20260507183737 12 152 1.6 9.7 0.00 5.11 0.20 86 1010.9
20260507183243 12 184 3.2 11.3 0.00 5.11 0.20 85 1010.7
20260507182727 12 193 8.0 11.3 0.00 5.11 0.20 84 1010.7
20260507182250 12 203 4.8 9.7 0.00 5.11 0.20 85 1010.6
20260507181733 12 200 0.0 4.8 0.00 5.11 0.20 84 1010.5
20260507181239 12 191 0.0 0.0 0.00 5.11 0.20 83 1010.4
20260507180724 12 191 0.0 3.2 0.00 5.11 0.20 83 1010.4
20260507180229 12 191 0.0 3.2 0.00 5.11 0.20 83 1010.3
20260507175734 12 244 0.0 4.8 0.00 10.69 0.20 83 1010.3
20260507175223 12 244 0.0 6.4 0.00 10.69 0.20 83 1010.3
20260507174749 12 215 3.2 12.9 0.10 10.69 0.20 82 1010.3
20260507174252 12 237 6.4 19.3 0.10 10.69 0.20 81 1010.3
20260507173735 13 240 9.7 19.3 0.10 10.69 0.20 79 1010.2
20260507173240 13 193 3.2 14.5 0.10 10.69 0.20 78 1010.2
20260507172743 13 193 4.8 17.7 0.10 10.69 0.20 76 1010.1
20260507172227 13 156 9.7 20.9 0.10 10.69 0.20 74 1010.0
20260507171731 14 161 12.9 20.9 0.10 10.69 0.20 74 1009.9
20260507171236 14 134 16.1 20.9 0.10 10.69 0.20 71 1009.8
20260507170739 14 191 11.3 24.1 0.10 10.69 0.20 74 1009.9
20260507170224 14 136 14.5 29.0 0.10 10.69 0.20 76 1009.8
20260507165729 14 148 12.9 29.0 0.10 10.69 0.20 77 1009.9
20260507165255 14 181 17.7 20.9 0.10 10.69 0.20 79 1009.8
20260507164740 14 173 12.9 19.3 0.00 10.59 0.18 79 1009.8
20260507164226 15 174 11.3 19.3 0.00 10.59 0.18 78 1009.7
20260507163752 15 196 6.4 17.7 0.00 10.59 0.18 76 1009.7
20260507163237 16 184 9.7 17.7 0.00 10.59 0.18 75 1009.7
20260507162726 16 165 8.0 16.1 0.00 10.59 0.18 74 1009.6
20260507162233 16 210 9.7 16.1 0.00 10.59 0.18 73 1009.5
20260507161739 16 213 6.4 11.3 0.00 10.59 0.18 72 1009.5
20260507161224 16 185 8.0 11.3 0.00 10.59 0.18 69 1009.4
20260507160730 16 192 4.8 11.3 0.00 10.59 0.18 69 1009.4
20260507160235 16 214 8.0 11.3 0.00 10.59 0.18 69 1009.3
20260507155739 16 209 6.4 11.3 0.00 10.59 0.18 69 1009.2
20260507155225 16 228 4.8 11.3 0.00 10.59 0.18 70 1009.3
20260507154731 16 223 6.4 14.5 0.00 10.59 0.18 69 1009.3
20260507154235 16 242 4.8 14.5 0.00 10.59 0.18 69 1009.1
20260507153724 16 190 8.0 16.1 0.00 10.59 0.18 67 1009.2
20260507153228 16 238 9.7 16.1 0.00 10.59 0.18 64 1009.1
20260507152808 16 191 8.0 12.9 0.00 10.59 0.18 65 1009.1
20260507152233 16 246 8.0 12.9 0.00 10.59 0.18 71 1009.1
20260507151738 16 210 6.4 14.5 0.00 10.59 0.18 72 1009.2
20260507151223 16 219 8.0 14.5 0.00 10.59 0.18 71 1009.2
20260507150749 16 230 6.4 12.9 0.00 10.59 0.18 71 1009.1
20260507150239 16 190 8.0 14.5 0.00 10.59 0.18 70 1009.1
20260507145744 16 236 4.8 14.5 0.00 10.69 0.18 71 1009.1
20260507145228 16 194 4.8 12.9 0.00 10.69 0.18 70 1009.0
20260507144733 16 240 8.0 14.5 0.00 10.69 0.18 69 1009.0
20260507144238 17 248 9.7 12.9 0.00 10.69 0.18 65 1009.0
20260507143724 17 211 3.2 14.5 0.00 10.69 0.18 65 1009.0
20260507143230 17 212 8.0 14.5 0.00 10.69 0.18 64 1009.1
20260507142737 17 275 6.4 11.3 0.00 10.69 0.18 64 1009.1
20260507142223 17 210 1.6 11.3 0.00 10.69 0.18 67 1009.1
20260507141729 17 204 6.4 11.3 0.00 10.69 0.18 62 1009.1
20260507141235 17 165 3.2 9.7 0.00 10.69 0.18 65 1009.1
20260507140724 17 257 4.8 14.5 0.00 10.69 0.18 67 1009.2
20260507140228 16 229 6.4 14.5 0.00 10.69 0.18 66 1009.4
20260507135734 16 240 9.7 14.5 0.00 11.81 0.18 68 1009.5
20260507135238 16 233 6.4 11.3 0.00 11.81 0.18 70 1009.5
20260507134724 16 207 4.8 9.7 0.00 11.81 0.18 70 1009.6
20260507134231 16 187 6.4 9.7 0.00 11.81 0.18 64 1009.7
20260507133735 16 182 4.8 11.3 0.00 11.81 0.18 64 1009.7
20260507133241 16 184 6.4 12.9 0.10 11.81 0.18 64 1009.7
20260507132726 16 198 6.4 19.3 0.10 11.81 0.18 66 1009.8
20260507132232 16 186 8.0 19.3 0.10 11.81 0.18 68 1009.9
20260507131757 16 213 8.0 17.7 0.10 11.81 0.18 69 1009.8
20260507131242 16 239 4.8 11.3 0.20 11.81 0.18 69 1009.7
20260507130731 16 235 4.8 11.3 0.20 11.81 0.18 73 1009.9
20260507130256 16 258 6.4 11.3 0.20 11.81 0.18 71 1009.9
20260507125739 16 200 6.4 11.3 0.20 11.99 0.18 72 1009.8
20260507125224 15 178 4.8 8.0 0.20 11.99 0.18 75 1009.9
20260507124730 15 175 3.2 6.4 0.30 11.99 0.18 79 1010.0
20260507124234 15 198 1.6 6.4 0.30 11.99 0.18 79 1010.0
20260507123800 15 282 0.0 4.8 0.20 11.91 0.15 85 1010.0
20260507123225 14 325 0.0 6.4 0.20 11.91 0.15 89 1010.0
20260507122730 13 284 0.0 6.4 0.20 11.91 0.15 86 1010.0
20260507122257 13 351 1.6 8.0 0.20 11.91 0.15 83 1009.9
20260507121740 13 40 4.8 12.9 0.20 11.91 0.15 81 1009.9
20260507121225 13 348 4.8 12.9 0.10 11.81 0.13 80 1010.0
20260507120750 13 348 4.8 16.1 0.10 11.81 0.13 77 1009.8
20260507120234 13 209 3.2 22.5 0.10 11.81 0.13 74 1009.7
20260507115759 14 265 14.5 22.5 0.10 11.91 0.13 72 1009.8
20260507115226 15 101 3.2 8.0 0.10 11.91 0.13 78 1009.8
20260507114729 15 57 3.2 4.8 0.00 11.81 0.10 75 1009.8
20260507114235 15 5 1.6 8.0 0.00 11.81 0.10 73 1009.7
20260507113740 15 30 4.8 12.9 0.00 11.81 0.10 71 1009.6
20260507113244 15 36 4.8 12.9 0.00 11.81 0.10 71 1009.7
20260507112728 15 69 4.8 6.4 0.00 11.81 0.10 72 1009.7
20260507112232 16 34 1.6 4.8 0.00 11.81 0.10 69 1009.7
20260507111735 16 248 0.0 8.0 0.00 11.81 0.10 67 1009.7
20260507111240 16 197 1.6 12.9 0.00 11.81 0.10 70 1009.7
20260507110724 16 257 6.4 14.5 0.00 11.81 0.10 67 1009.7
20260507110228 16 224 9.7 22.5 0.00 11.81 0.10 65 1009.7
20260507105735 16 205 8.0 22.5 0.00 12.29 0.10 63 1009.8
20260507105239 16 261 4.8 17.7 0.00 12.29 0.10 63 1009.7
20260507104747 17 223 8.0 19.3 0.00 12.29 0.10 64 1009.7
20260507104231 16 160 9.7 19.3 0.00 12.29 0.10 63 1009.7
20260507103737 16 221 9.7 22.5 0.00 12.29 0.10 64 1009.6
20260507103302 16 244 9.7 19.3 0.00 12.29 0.10 63 1009.7
20260507102726 16 128 9.7 17.7 0.00 12.29 0.10 63 1009.9
20260507102250 16 212 8.0 12.9 0.00 12.29 0.10 64 1009.9
20260507101734 16 163 4.8 12.9 0.00 12.29 0.10 65 1010.0
20260507101238 16 122 6.4 12.9 0.00 12.29 0.10 63 1010.0
20260507100723 16 190 6.4 12.9 0.00 12.29 0.10 65 1010.0
20260507100229 16 215 3.2 16.1 0.00 12.29 0.10 68 1010.1
20260507095733 15 158 9.7 16.1 0.00 12.90 0.10 68 1010.1
20260507095239 15 198 9.7 16.1 0.00 12.90 0.10 70 1010.1
20260507094725 15 205 9.7 14.5 0.00 12.90 0.10 68 1010.3
20260507094251 15 191 9.7 17.7 0.00 12.90 0.10 67 1010.2
20260507093739 15 213 11.3 17.7 0.00 12.90 0.10 67 1010.1
20260507093244 15 171 8.0 16.1 0.00 12.90 0.10 67 1010.2
20260507092728 15 205 8.0 20.9 0.00 12.90 0.10 67 1010.1
20260507092235 15 125 12.9 20.9 0.00 12.90 0.10 66 1010.1
20260507091740 15 135 12.9 19.3 0.10 12.90 0.10 67 1010.1
20260507091245 15 190 8.0 14.5 0.10 12.90 0.10 68 1010.2
20260507090750 15 136 9.7 16.1 0.10 12.90 0.10 68 1010.3
20260507090234 15 202 9.7 16.1 0.10 12.90 0.10 68 1010.3
20260507085740 15 121 8.0 14.5 0.10 13.00 0.10 68 1010.2
20260507085225 14 111 8.0 19.3 0.10 13.00 0.10 70 1010.2
20260507084731 14 144 12.9 19.3 0.10 13.00 0.10 70 1010.2
20260507084237 14 136 9.7 16.1 0.10 13.00 0.10 70 1010.2
20260507083727 14 165 6.4 16.1 0.10 13.00 0.10 72 1010.2
20260507083231 14 173 9.7 16.1 0.10 13.00 0.10 72 1010.2
20260507082757 14 146 9.7 14.5 0.10 13.00 0.10 69 1010.1
20260507082243 13 199 4.8 9.7 0.10 13.00 0.10 72 1010.1
20260507081727 14 190 1.6 4.8 0.00 12.90 0.08 70 1010.1
20260507081231 13 128 0.0 0.0 0.00 12.90 0.08 68 1010.1
20260507080734 13 140 0.0 6.4 0.00 12.90 0.08 74 1010.1
20260507080238 13 163 0.0 6.4 0.00 12.90 0.08 77 1010.0
20260507075803 12 151 1.6 6.4 0.00 12.90 0.08 78 1010.1
20260507075227 12 139 3.2 4.8 0.00 12.90 0.08 79 1010.1
20260507074734 12 88 1.6 4.8 0.00 12.90 0.08 81 1010.1
20260507074239 12 355 0.0 0.0 0.00 12.90 0.08 81 1010.0
20260507073724 11 355 0.0 3.2 0.00 12.90 0.08 83 1010.1
20260507073228 11 355 0.0 4.8 0.00 12.90 0.08 82 1010.1
20260507072736 11 355 0.0 4.8 0.00 12.90 0.08 82 1010.0
20260507072240 11 360 0.0 6.4 0.00 12.90 0.08 84 1010.0
20260507071726 11 40 3.2 9.7 0.00 12.90 0.08 84 1010.0
20260507071231 11 9 6.4 11.3 0.00 12.90 0.08 83 1009.9
20260507070757 11 45 6.4 9.7 0.00 12.90 0.08 84 1010.0
20260507070240 10 29 4.8 9.7 0.00 12.90 0.08 85 1009.9
20260507065725 10 35 4.8 9.7 0.00 12.90 0.08 86 1009.9
20260507065230 10 314 4.8 9.7 0.00 12.90 0.08 87 1009.9
20260507064734 10 360 3.2 8.0 0.00 12.90 0.08 88 1009.9
20260507064259 10 42 4.8 8.0 0.00 12.90 0.08 88 1009.9
20260507063803 9 360 3.2 6.4 0.00 12.90 0.08 89 1010.0
20260507063226 9 31 3.2 8.0 0.00 12.90 0.08 89 1010.0
20260507062731 9 57 3.2 8.0 0.00 12.90 0.08 88 1010.0
20260507062240 9 342 1.6 9.7 0.00 12.90 0.08 88 1010.0
20260507061744 9 355 4.8 9.7 0.00 12.90 0.08 88 1009.9
20260507061225 9 321 6.4 9.7 0.00 12.90 0.08 88 1009.9
20260507060730 9 355 6.4 12.9 0.00 12.90 0.08 87 1009.9
20260507060255 9 36 8.0 12.9 0.00 12.90 0.08 87 1009.9
20260507055738 9 355 8.0 12.9 0.00 13.89 0.08 89 1009.8
20260507055241 9 360 4.8 9.7 0.00 13.89 0.08 89 1009.9
20260507054726 9 355 3.2 8.0 0.00 13.89 0.08 89 1009.8
20260507054231 9 321 3.2 16.1 0.00 13.89 0.08 89 1009.8
20260507053737 8 52 6.4 16.1 0.00 13.89 0.08 89 1009.6
20260507053239 9 355 4.8 14.5 0.00 13.89 0.08 88 1009.6
20260507052724 9 340 6.4 14.5 0.00 13.89 0.08 88 1009.6
20260507052248 9 74 4.8 14.5 0.00 13.89 0.08 88 1009.6
20260507051732 9 22 1.6 12.9 0.00 13.89 0.08 88 1009.4
20260507051241 9 35 6.4 17.7 0.10 13.89 0.08 88 1009.4
20260507050726 8 333 1.6 17.7 0.20 13.89 0.08 89 1009.3
20260507050230 8 12 3.2 12.9 0.20 13.89 0.08 89 1009.2
20260507045734 8 355 4.8 14.5 0.20 14.20 0.08 89 1009.2
20260507045238 8 315 6.4 20.9 0.20 14.20 0.08 89 1009.2
20260507044723 8 360 9.7 16.1 0.20 14.20 0.08 89 1009.2
20260507044228 8 341 8.0 16.1 0.20 14.20 0.08 89 1009.0
20260507043733 8 351 11.3 16.1 0.20 14.20 0.08 89 1009.0
20260507043238 8 325 9.7 17.7 0.20 14.20 0.08 88 1009.0
20260507042724 9 329 9.7 24.1 0.20 14.20 0.08 86 1009.0
20260507042230 9 344 4.8 29.0 0.20 14.20 0.08 85 1009.1
20260507041736 9 360 16.1 29.0 0.20 14.20 0.08 84 1009.0
20260507041226 9 44 12.9 24.1 0.10 14.10 0.05 85 1009.0
20260507040732 9 31 12.9 24.1 0.00 14.00 0.03 84 1009.0
20260507040236 10 24 12.9 24.1 0.00 14.00 0.03 83 1009.1
20260507035742 10 40 12.9 32.2 0.00 14.00 0.03 82 1009.1
20260507035227 10 42 17.7 32.2 0.00 14.00 0.03 81 1009.0
20260507034753 10 30 14.5 25.7 0.00 14.00 0.03 82 1008.9
20260507034237 10 21 16.1 25.7 0.00 14.00 0.03 82 1009.0
20260507033723 10 15 16.1 25.7 0.00 14.00 0.03 84 1009.0
20260507033229 10 42 9.7 22.5 0.00 14.00 0.03 86 1009.0
20260507032755 10 62 12.9 22.5 0.00 14.00 0.03 88 1009.0
20260507032239 9 325 9.7 19.3 0.00 14.00 0.03 91 1009.0
20260507031729 9 5 11.3 19.3 0.00 14.00 0.03 92 1008.9
20260507031235 9 22 4.8 19.3 0.00 14.00 0.03 93 1009.0
20260507030740 9 5 9.7 17.7 0.00 14.00 0.03 93 1008.8
20260507030223 9 348 6.4 12.9 0.00 14.00 0.03 93 1008.8
20260507025728 9 24 6.4 16.1 0.00 14.10 0.03 93 1009.0
20260507025235 9 44 12.9 16.1 0.00 14.10 0.03 94 1009.0
20260507024740 8 65 6.4 9.7 0.00 14.10 0.03 94 1008.9
20260507024225 8 23 3.2 6.4 0.00 14.10 0.03 93 1008.9
20260507023751 9 15 1.6 6.4 0.00 14.10 0.03 93 1008.8
20260507023234 9 59 3.2 6.4 0.00 14.10 0.03 93 1008.8
20260507022740 9 204 1.6 3.2 0.00 14.10 0.03 93 1008.8
20260507022229 8 204 0.0 3.2 0.00 14.10 0.03 93 1008.7
20260507021733 8 204 1.6 4.8 0.00 14.10 0.03 93 1008.7
20260507021238 9 204 0.0 6.4 0.00 14.10 0.03 93 1008.6
20260507020723 9 208 3.2 6.4 0.00 14.10 0.03 93 1008.6
20260507020248 8 123 3.2 6.4 0.00 14.10 0.03 93 1008.5
20260507015731 8 173 1.6 6.4 0.00 14.81 0.03 93 1008.6
20260507015256 8 182 1.6 8.0 0.00 14.81 0.03 93 1008.5
20260507014741 8 70 4.8 8.0 0.00 14.81 0.03 93 1008.5
20260507014224 8 39 3.2 4.8 0.00 14.81 0.03 93 1008.5
20260507013729 8 24 3.2 4.8 0.00 14.81 0.03 93 1008.5
20260507013233 8 360 1.6 4.8 0.10 14.81 0.03 93 1008.5
20260507012758 8 197 1.6 4.8 0.10 14.81 0.03 93 1008.6
20260507012241 8 27 0.0 6.4 0.10 14.81 0.03 93 1008.5
20260507011726 8 42 4.8 8.0 0.10 14.81 0.03 93 1008.5
20260507011235 8 53 4.8 6.4 0.10 14.81 0.03 93 1008.6
20260507010740 8 169 1.6 6.4 0.10 14.81 0.03 92 1008.5
20260507010245 8 195 4.8 8.0 0.10 14.81 0.03 92 1008.6
20260507005729 8 209 4.8 9.7 0.10 15.19 0.03 93 1008.6
20260507005234 8 338 3.2 9.7 0.10 15.19 0.03 93 1008.6
20260507004738 8 52 4.8 8.0 0.10 15.19 0.03 93 1008.5
20260507004224 8 36 3.2 6.4 0.10 15.19 0.03 93 1008.6
20260507003729 8 36 1.6 8.0 0.10 15.19 0.03 93 1008.6
20260507003235 8 343 4.8 8.0 0.00 15.09 0.00 93 1008.7
20260507002740 8 61 1.6 4.8 0.00 15.09 0.00 93 1008.8
20260507002224 8 145 0.0 4.8 0.00 15.09 0.00 93 1008.7
20260507001748 8 145 1.6 4.8 0.00 15.09 0.00 92 1008.8
20260507001231 8 242 3.2 4.8 0.00 15.09 0.00 92 1008.7
20260507000740 8 98 0.0 4.8 0.00 15.09 0.00 92 1008.7
20260507000247 8 98 3.2 4.8 0.00 15.09 0.00 92 1008.7
20260506235730 8 38 1.6 4.8 0.00 16.00 0.00 92 1008.7
20260506235236 8 55 1.6 3.2 0.00 16.00 0.00 92 1008.8
20260506234742 8 342 1.6 3.2 0.00 16.00 0.00 92 1008.7
20260506234227 8 342 0.0 0.0 0.00 16.00 0.00 92 1008.8
20260506233733 8 342 0.0 1.6 0.00 16.00 0.00 91 1008.8
20260506233238 8 342 0.0 1.6 0.00 16.00 0.00 91 1008.7
20260506232723 8 342 0.0 6.4 0.00 16.00 0.00 91 1008.7
20260506232227 8 77 1.6 6.4 0.00 16.00 0.00 91 1008.7
20260506231731 8 47 3.2 9.7 0.00 16.00 0.00 91 1008.7
20260506231236 8 32 1.6 9.7 0.00 16.00 0.00 91 1008.6
20260506230233 8 277 1.6 8.0 0.00 16.00 0.00 91 1008.6
20260506225739 8 69 1.6 12.9 0.00 16.31 0.00 91 1008.5
20260506225225 8 360 4.8 12.9 0.10 16.31 0.00 91 1008.5
20260506224731 8 355 6.4 14.5 0.10 16.31 0.00 90 1008.5
20260506224257 8 58 8.0 16.1 0.10 16.31 0.00 90 1008.6
20260506223723 8 26 9.7 16.1 0.10 16.31 0.00 90 1008.6
20260506223228 8 22 8.0 11.3 0.10 16.31 0.00 91 1008.6
20260506222732 8 43 1.6 6.4 0.10 16.31 0.00 91 1008.8
20260506222237 8 294 1.6 6.4 0.10 16.31 0.00 91 1008.9
20260506221803 8 311 3.2 6.4 0.10 16.31 0.00 91 1008.9
20260506221227 8 35 3.2 14.5 0.10 16.31 0.00 90 1008.8
20260506220732 8 331 6.4 14.5 0.10 16.31 0.00 90 1008.7
20260506220241 8 49 8.0 19.3 0.10 16.31 0.00 90 1008.7
20260506215725 9 53 9.7 16.1 0.00 17.50 4.11 89 1008.7
20260506215230 9 74 8.0 12.9 0.00 17.50 4.11 89 1008.9
20260506214736 9 37 3.2 6.4 0.00 17.50 4.11 89 1009.0
20260506214241 9 63 3.2 9.7 0.00 17.50 4.11 89 1008.9
20260506213746 8 316 3.2 9.7 0.00 17.50 4.11 89 1008.9
20260506213230 8 355 3.2 8.0 0.00 17.50 4.11 89 1008.9
20260506212735 8 309 1.6 11.3 0.00 17.50 4.11 89 1008.9
20260506212240 9 213 1.6 11.3 0.00 17.50 4.11 88 1008.9
20260506211724 9 319 3.2 17.7 0.00 17.50 4.11 88 1008.8
20260506211228 9 5 6.4 22.5 0.00 17.50 4.11 88 1008.6
20260506210737 9 24 9.7 22.5 0.00 17.50 4.11 88 1008.4
20260506210241 8 42 8.0 17.7 0.00 17.50 4.11 89 1008.6
20260506205726 8 35 8.0 20.9 0.10 17.50 4.11 90 1008.6
20260506205230 8 335 9.7 19.3 0.20 17.50 4.11 90 1008.7
20260506204734 8 319 9.7 16.1 0.30 17.50 4.11 90 1008.7
20260506204236 8 30 3.2 16.1 0.41 17.50 4.11 90 1008.9
20260506203740 8 339 8.0 17.7 0.51 17.50 4.11 90 1008.9
20260506203243 8 355 8.0 22.5 0.61 17.50 4.11 90 1008.8
20260506202727 8 347 6.4 22.5 0.61 17.50 4.11 90 1008.7
20260506202230 8 360 8.0 19.3 0.61 17.50 4.11 90 1008.7
20260506201735 8 5 8.0 24.1 0.61 17.50 4.11 91 1008.8
20260506201240 8 321 12.9 24.1 0.61 17.50 4.11 91 1008.7
20260506200723 8 342 12.9 19.3 0.61 17.50 4.11 91 1008.8
20260506200230 8 355 9.7 19.3 0.71 17.50 4.11 91 1008.7
20260506195731 8 360 8.0 19.3 0.61 17.50 4.09 90 1008.8
20260506195234 8 327 11.3 25.7 0.61 17.40 4.06 89 1008.6
20260506194739 8 338 9.7 25.7 0.61 17.30 4.04 89 1008.5
20260506194239 8 308 14.5 24.1 0.71 17.20 4.01 89 1008.5
20260506193741 8 326 6.4 17.7 0.79 17.09 3.99 89 1008.4
20260506193246 9 315 6.4 17.7 1.09 16.99 3.96 88 1008.4